Location: Newark
(7.0858°N, 171.3717°E)
Time: 16:56:59
(UTC+00:00)

Altair - Pass Details

Date: 28 November 2020
Orbit: 1501 x 1682 km, 47.2° (Epoch: 20 January)

Event Time Altitude Azimuth Distance (km) Brightness Sun altitude
Rises 08:40:00 0° 261° (W) 4,787 11.1 -34.5°
Reaches altitude 10° 08:44:33 10° 279° (W) 3,765 10.1 -35.5°
Maximum altitude 08:50:26 18° 318° (NW) 3,140 9.2 -36.9°
Enters shadow 08:54:00 14° 344° (NNW) 3,347 9.2 -37.7°
